Temp
22 23 23 26 26 24 23 23 24 25 18 18 21 22 24 24 22 20 21 20 19 18 17 16 15 14 13 12 11 11 10 10 9 9 9 9 9 8 8 8 7 7 7 7
21 23 22 20 20 21 21 22 23 23 18 17 22 22 23 24 20 21 21 19 18 18 16 15 14 13 13 12 11 11 10 10 9 9 10 10 9 9 8 7 7 7 6 6
23 21 18 19 19 20 21 21 22 20 19 18 18 22 24 21 20 19 18 18 18 17 17 15 14 13 12 12 11 11 10 10 9 10 9 9 8 8 7 7 6 6 6 6
22 17 18 18 20 20 20 18 17 17 18 19 18 20 26 23 19 19 19 17 17 17 17 16 15 14 13 12 11 11 10 9 9 9 8 8 8 8 8 7 7 6 6 5
19 17 17 18 18 18 18 16 17 16 16 16 19 16 22 23 22 20 20 18 17 16 16 16 15 14 13 12 11 10 10 9 9 8 9 9 10 10 9 8 6 6 5 5
16 14 15 16 14 14 15 16 16 16 17 15 16 19 23 25 22 23 20 17 15 14 15 15 14 13 12 11 10 10 9 9 8 8 9 9 10 8 7 7 6 6 5 4
17 16 13 14 15 14 14 16 17 17 15 18 15 15 20 22 17 16 20 16 14 13 14 14 13 12 11 10 9 9 9 8 8 8 8 9 8 8 7 7 7 6 5 5
20 19 14 12 13 12 15 13 17 17 21 22 15 16 20 15 14 15 16 14 12 13 13 13 12 11 10 9 9 9 8 8 8 7 7 8 7 7 7 7 6 6 6 5
19 18 11 10 12 12 14 14 14 13 13 15 21 22 16 14 13 13 13 13 12 12 12 13 12 11 10 9 9 9 8 7 7 7 6 6 6 6 5 5 5 5 4 4
15 16 12 10 11 10 11 11 14 13 15 18 21 20 21 17 16 14 13 13 11 10 10 11 11 11 10 9 9 8 7 7 6 5 5 5 5 5 4 4 4 4 3 3
12 13 13 11 11 12 10 10 11 11 15 16 17 19 13 13 12 13 13 12 11 10 10 10 10 10 9 8 7 7 6 5 5 5 4 4 3 3 3 3 2 2 2 2
10 11 14 16 5 5 8 10 10 14 14 14 12 15 11 7 5 5 8 10 10 9 9 9 9 8 7 7 6 5 5 5 4 4 3 2 2 1 1 0 1 1 1 1
8 12 14 14 8 7 8 7 7 8 10 12 13 15 10 8 7 5 5 7 8 8 7 8 7 7 7 6 5 5 4 3 2 1 -0 -0 -1 -0 -0 0 0 -0 -0 -1
11 12 12 14 15 11 9 8 7 9 11 13 13 13 11 8 7 7 7 7 7 5 5 6 7 6 6 5 4 2 -1 -1 -1 -1 -1 -1 -1 -1 -1 -1 -1 -1 -1 -1
10 9 13 13 13 11 9 9 8 7 9 10 12 10 9 5 4 4 3 3 3 3 2 2 2 1 -0 -1 -1 -2 -2 -2 -2 -2 -3 -3 -3 -1 -1 -1 -2 -2 -2 -2
10 10 9 7 11 10 8 9 8 8 8 8 8 8 4 4 4 5 4 4 3 2 2 1 0 -1 -1 -1 -2 -2 -3 -3 -3 -3 -4 -3 -3 -2 -3 -3 -3 -3 -3 -3
7 9 8 9 10 9 8 8 7 8 7 7 7 7 4 4 4 3 2 3 3 2 1 1 0 -1 -1 -2 -2 -3 -3 -3 -4 -4 -3 -3 -3 -3 -3 -3 -4 -4 -4 -4
7 7 8 8 8 9 7 4 4 6 5 4 4 5 4 3 3 1 1 2 2 2 1 0 -1 -1 -2 -2 -3 -3 -4 -4 -4 -3 -3 -3 -4 -4 -4 -4 -4 -4 -4 -4
8 8 8 8 10 11 10 6 5 5 7 5 4 4 3 3 3 4 3 0 2 1 0 -1 -2 -2 -3 -3 -3 -4 -4 -5 -4 -4 -4 -4 -5 -5 -4 -4 -4 -4 -4 -4
6 7 7 9 7 8 9 7 6 5 6 4 3 4 4 3 4 7 1 -0 -0 -1 -1 -2 -2 -3 -3 -4 -4 -4 -4 -4 -3 -4 -5 -5 -5 -5 -5 -5 -5 -5 -5 -5
5 5 6 7 7 9 8 5 5 6 6 5 5 4 3 3 3 2 -0 -0 -1 -1 -2 -2 -3 -4 -4 -5 -5 -4 -4 -4 -5 -6 -6 -6 -6 -6 -6 -6 -6 -6 -6 -6
6 6 6 6 6 6 7 5 6 6 6 6 5 4 2 3 2 1 0 -0 -2 -3 -3 -3 -4 -5 -5 -5 -6 -5 -5 -6 -6 -7 -7 -7 -7 -7 -7 -6 -6 -6 -6 -6
4 7 8 8 8 7 7 7 7 6 5 5 3 3 3 2 2 1 1 -0 -2 -3 -5 -5 -5 -6 -7 -7 -6 -6 -7 -8 -8 -8 -7 -8 -7 -7 -7 -7 -6 -6 -6 -6
6 5 5 6 8 5 5 6 6 5 4 4 3 3 3 1 2 2 1 -1 -2 -4 -6 -7 -7 -7 -8 -7 -8 -8 -8 -9 -9 -9 -9 -8 -8 -7 -7 -7 -7 -7 -6 -6
4 3 5 5 5 4 5 5 4 3 3 2 3 3 2 2 1 1 0 -1 -3 -6 -8 -8 -8 -8 -9 -9 -9 -9 -8 -9 -9 -9 -9 -9 -8 -8 -8 -8 -7 -7 -7 -7
4 1 3 4 2 1 2 3 3 2 1 1 1 1 2 1 1 0 -0 -2 -5 -8 -9 -9 -9 -9 -9 -9 -9 -9 -9 -9 -10 -9 -9 -8 -8 -8 -8 -8 -8 -7 -7 -7
Height
764 766 763 748 748 755 762 763 762 753 779 779 764 758 750 747 753 760 756 761 766 771 777 783 789 795 800 805 810 814 818 822 826 830 833 837 839 842 844 846 847 848 848 848
767 764 759 764 767 768 767 767 764 760 779 782 762 756 746 743 754 753 756 761 764 770 776 782 787 793 798 803 808 812 817 821 825 828 832 835 838 841 844 845 848 849 849 849
761 765 772 771 772 772 767 768 764 774 776 775 777 753 736 748 751 757 761 761 764 768 773 779 785 790 796 801 806 810 815 819 823 827 831 834 838 840 843 845 847 849 850 850
761 775 775 774 770 770 773 776 781 783 782 779 775 768 730 735 752 754 755 761 764 767 770 777 783 788 794 799 805 809 814 818 822 825 828 831 834 837 841 844 846 848 849 851
768 777 779 776 773 774 779 785 783 787 788 791 769 790 744 734 741 744 749 757 764 767 770 776 781 787 793 798 803 808 813 817 820 823 827 830 833 836 839 843 846 848 850 851
778 784 783 783 790 788 789 786 787 787 784 797 776 769 742 726 734 728 744 757 766 771 774 777 782 788 793 799 803 807 811 816 819 822 825 828 831 835 839 842 845 847 850 851
776 779 791 790 786 792 792 784 783 785 795 774 782 783 747 732 748 753 744 762 771 774 775 778 784 789 793 797 802 806 810 814 819 823 824 827 831 834 838 841 844 847 849 851
764 770 788 798 795 795 787 797 780 781 756 747 783 771 743 758 763 760 757 769 776 777 778 781 785 789 794 797 801 805 809 813 817 822 826 828 830 833 837 840 843 846 849 851
767 768 800 803 799 799 790 793 791 799 795 785 746 732 753 760 766 768 772 774 778 780 782 783 786 790 794 798 801 805 810 814 817 821 825 828 830 833 837 840 843 846 849 851
781 779 795 805 803 805 799 802 789 796 784 765 736 741 738 749 755 766 771 773 780 785 786 786 789 792 796 799 803 807 811 814 818 821 826 829 831 834 838 841 844 847 849 851
792 790 791 800 796 789 805 801 799 798 781 767 757 744 767 767 772 770 770 775 782 785 787 789 791 794 798 802 807 809 811 815 818 821 827 830 833 836 838 843 846 848 850 852
801 795 784 773 821 822 812 800 800 780 779 779 785 760 776 789 794 796 785 783 786 789 790 792 794 796 800 803 807 812 813 816 818 822 826 830 832 837 839 840 845 848 850 852
809 790 782 776 809 814 810 812 815 809 801 780 780 758 781 785 790 796 797 791 790 792 793 795 795 797 799 803 806 812 816 818 820 823 827 831 834 835 840 840 844 847 849 851
798 792 787 775 771 792 802 805 813 805 792 773 764 763 773 786 789 791 789 789 790 793 794 794 795 798 801 804 808 810 815 819 825 823 827 832 836 838 841 841 844 846 848 849
802 801 783 778 778 786 796 795 803 807 790 789 764 779 783 796 801 799 799 795 793 794 798 801 802 803 806 810 813 815 817 818 825 825 828 833 837 839 839 841 844 846 846 847
804 799 802 805 783 788 793 790 792 794 792 792 791 786 799 799 798 796 795 794 793 794 796 799 802 805 807 811 815 817 819 820 823 826 829 834 837 838 840 841 842 844 845 846
814 803 805 790 786 794 793 783 786 784 788 788 791 787 798 797 798 800 799 796 793 793 796 798 802 805 807 811 815 817 820 822 825 827 830 833 835 836 838 840 842 843 843 844
808 811 806 798 796 788 785 796 797 793 793 797 798 795 798 800 801 802 800 797 794 795 797 799 802 806 809 812 815 818 820 823 826 830 830 831 833 835 837 839 840 842 842 842
807 804 801 799 780 761 765 786 794 795 780 791 793 796 798 801 801 792 794 797 795 796 798 800 803 807 810 813 816 819 822 824 827 830 830 831 832 834 835 837 838 840 840 840
812 806 806 788 798 774 763 781 785 792 784 788 794 793 792 798 792 781 793 796 796 797 798 801 804 808 811 813 816 819 823 825 827 828 828 829 831 832 834 835 836 836 836 837
809 807 801 791 784 766 771 786 790 787 782 787 789 791 793 793 789 790 793 794 796 796 797 800 803 806 810 814 817 820 821 823 825 826 827 828 828 829 831 832 833 834 834 835
794 794 792 789 784 785 777 790 787 781 781 782 784 787 788 787 787 789 791 792 795 796 798 800 804 807 810 814 816 816 818 820 822 824 825 826 827 827 829 829 830 832 832 830
800 779 774 773 769 777 778 776 778 782 783 783 785 784 785 786 784 786 787 789 792 795 797 799 802 806 810 812 812 814 817 819 822 823 822 823 824 825 826 827 828 827 827 828
785 788 786 781 770 780 784 783 783 784 784 784 784 782 782 781 780 780 782 786 790 793 796 799 801 804 807 809 811 814 816 816 817 818 819 821 822 822 822 823 823 823 823 823
794 796 783 781 779 782 781 783 786 787 786 784 782 778 776 776 775 775 778 783 787 791 795 797 799 803 806 807 808 810 811 812 813 815 816 816 817 818 819 820 820 819 819 819
794 800 790 782 795 798 789 788 790 788 787 785 782 775 772 771 772 773 776 780 785 788 791 795 799 801 802 803 806 807 808 808 811 813 813 814 814 815 815 816 815 815 815 815
Wind_Speed
4 7 9 9 8 7 6 7 10 5 3 4 9 15 13 10 8 10 8 5 8 11 12 17 19 20 21 21 21 20 20 19 18 16 15 13 12 10 8 7 7 7 7 8
4 11 3 4 0 3 5 7 10 2 2 3 10 16 15 11 10 10 6 6 9 12 12 16 20 21 22 23 22 21 21 20 19 16 14 13 12 10 9 9 7 7 6 7
12 3 3 2 3 6 8 9 7 5 3 8 8 11 10 8 9 8 7 5 7 12 13 14 19 21 21 22 22 22 21 21 18 16 14 12 11 11 10 10 8 7 6 7
7 3 3 4 6 6 8 4 1 2 2 3 1 5 7 11 11 12 11 9 9 10 11 13 17 19 21 21 20 20 20 20 19 18 16 17 14 13 11 12 10 9 7 6
1 2 4 6 0 2 2 2 1 1 2 4 8 2 7 2 12 15 12 10 8 9 9 12 15 18 18 19 20 19 19 19 18 18 15 15 12 11 13 12 12 8 7 6
2 1 2 4 5 3 7 2 2 1 1 3 4 7 8 8 4 8 13 9 7 7 7 10 13 15 16 16 17 18 19 17 16 16 14 14 12 12 14 14 13 10 8 6
4 3 3 1 2 4 2 2 2 3 2 5 4 4 9 6 7 8 11 8 5 5 9 10 11 14 16 18 18 18 18 17 15 13 13 13 13 13 13 14 12 11 9 7
4 4 1 2 2 1 7 4 3 5 7 5 3 5 3 6 5 6 9 7 3 4 6 9 12 14 16 18 18 17 18 17 15 13 12 12 13 13 13 12 12 9 8 8
3 2 3 4 1 0 4 5 3 2 2 3 8 10 9 4 4 4 5 4 4 3 3 7 10 12 14 16 17 17 17 16 15 14 12 12 12 12 12 12 12 11 10 8
3 4 1 3 1 1 1 2 3 2 4 8 8 5 6 5 2 3 3 3 3 2 2 4 8 10 12 14 14 15 15 16 16 15 13 13 13 13 12 11 11 10 9 7
1 2 4 2 6 4 4 2 3 2 3 4 9 4 4 5 6 5 3 2 2 2 3 4 7 9 11 12 13 15 16 17 16 16 15 14 14 13 13 10 9 7 7 5
3 1 5 3 3 2 2 1 2 4 4 2 3 5 4 3 3 2 4 2 2 1 2 4 7 11 12 14 14 14 16 17 18 17 17 15 15 12 12 12 7 5 4 3
3 2 4 3 2 2 2 3 1 0 2 8 6 3 1 3 4 1 3 5 5 6 5 6 8 12 16 16 16 15 15 16 17 16 15 13 12 11 9 8 6 4 3 2
1 3 6 10 10 2 3 5 4 3 4 9 13 16 2 7 8 7 7 6 5 3 3 6 7 11 12 14 16 18 17 15 12 16 14 12 10 9 7 6 4 4 3 2
2 4 11 13 13 8 7 7 7 10 12 11 19 15 11 7 8 9 10 11 7 5 5 2 3 7 12 14 16 17 17 17 13 14 13 10 7 6 5 5 4 3 3 2
1 3 3 5 13 10 12 13 12 13 13 14 15 17 2 4 5 6 10 7 8 9 7 8 8 13 16 17 17 17 15 16 15 13 10 7 5 4 4 3 3 3 3 3
1 2 2 5 3 9 10 13 10 5 4 4 6 2 4 3 6 7 9 8 8 6 7 9 10 13 16 17 18 16 15 13 12 10 8 7 6 5 4 4 4 4 4 4
4 4 3 4 5 5 1 2 1 2 3 3 4 4 2 5 6 7 6 6 4 5 8 8 13 14 16 16 15 15 13 10 7 7 7 6 5 5 5 4 4 5 5 5
10 7 3 4 7 13 10 5 5 5 1 6 3 2 3 4 7 12 9 4 3 4 8 12 15 16 17 15 14 12 8 7 7 7 6 6 5 5 5 5 6 6 6 6
5 9 5 5 5 7 4 6 5 3 8 8 5 4 5 3 6 6 5 5 6 9 13 15 17 17 16 14 13 10 9 8 7 6 6 5 5 5 6 6 6 6 7 7
5 6 14 12 9 8 6 9 6 4 1 5 3 7 4 6 7 2 6 6 8 11 14 17 19 18 16 13 12 9 9 7 7 6 5 5 5 6 6 7 7 7 7 7
9 7 6 6 7 10 11 8 4 3 4 7 7 4 6 9 5 6 8 8 10 11 13 15 15 16 14 11 11 9 7 6 4 4 4 5 5 6 6 7 7 8 8 6
4 6 5 8 4 9 9 9 5 8 11 10 7 7 7 9 10 11 11 10 12 12 12 12 13 14 11 9 7 6 6 6 6 6 5 5 5 6 7 7 7 6 6 8
4 3 4 4 6 8 7 8 9 7 9 8 8 10 10 10 11 11 11 9 10 11 11 13 14 12 10 9 9 10 9 6 5 4 4 4 5 5 5 5 6 7 8 8
4 3 5 10 9 8 2 7 11 12 10 13 15 13 11 10 12 9 8 9 11 12 14 14 14 13 12 10 7 7 7 6 4 5 6 5 4 4 5 6 7 7 8 8
3 5 4 5 9 5 10 11 15 13 12 14 15 13 12 10 9 9 7 11 13 15 16 15 14 13 10 8 8 8 7 6 7 7 6 6 5 5 5 6 7 8 11 12
Wind_Direction
187 229 225 249 231 317 297 286 276 279 98 285 256 271 268 251 246 236 218 203 189 185 174 177 178 179 177 178 177 177 175 174 169 168 167 165 163 159 153 146 137 125 110 99
209 240 28 67 80 242 247 259 266 200 161 261 284 280 272 262 236 218 209 187 179 167 170 172 175 177 180 179 179 178 179 177 176 174 173 171 165 165 159 151 142 131 118 105
252 54 99 209 197 224 236 246 269 276 316 243 290 271 230 214 205 196 208 199 183 183 179 174 176 179 179 181 181 180 180 179 177 173 166 161 158 154 157 159 149 141 128 119
259 87 207 225 244 232 273 27 281 275 291 275 254 285 235 186 211 213 203 192 187 192 183 177 178 179 182 182 179 181 180 179 178 174 172 172 172 170 175 168 160 148 139 131
143 176 186 224 290 247 46 57 105 178 284 334 209 210 265 263 227 217 207 185 179 180 184 175 181 179 179 175 174 178 178 178 178 178 179 180 182 176 162 161 155 150 140 134
30 64 345 33 70 44 123 141 178 245 252 248 241 215 259 244 259 225 184 175 166 178 181 171 170 168 169 166 172 171 172 175 177 177 179 181 177 163 162 162 160 158 152 143
160 159 88 6 156 110 196 206 270 228 201 251 146 191 256 337 44 343 162 166 160 171 174 167 163 168 165 169 168 169 169 167 173 178 176 176 172 169 166 163 163 158 154 150
268 231 118 9 34 135 193 165 246 270 283 318 153 234 251 52 44 36 76 100 129 152 170 172 174 170 170 169 167 168 167 163 165 168 165 160 157 156 155 157 156 154 153 148
286 172 117 60 28 334 146 209 31 286 204 256 246 247 129 85 97 113 119 141 95 90 169 176 169 171 170 170 169 167 164 160 157 152 149 145 143 143 145 142 143 141 141 141
35 275 46 105 202 118 215 13 185 191 271 269 264 288 264 55 61 160 179 173 99 83 132 167 176 174 171 169 164 159 161 154 146 140 140 136 131 129 128 130 130 133 132 132
11 286 121 172 202 171 162 229 215 306 261 267 286 259 36 44 14 343 214 157 151 124 129 161 169 168 165 157 159 156 151 145 139 135 133 128 123 121 118 112 111 114 117 118
56 274 256 291 73 47 354 27 224 243 192 243 306 267 34 31 349 288 322 158 234 199 161 164 167 163 163 160 157 158 150 146 140 138 132 127 121 115 112 117 110 108 106 119
239 203 297 202 129 141 222 182 200 253 264 244 260 256 140 63 30 83 260 253 222 214 199 181 173 177 171 166 159 154 148 137 133 126 124 120 118 118 114 120 134 147 150 174
253 266 240 264 311 114 228 191 205 214 251 272 248 276 331 11 357 338 303 269 252 230 197 192 176 174 164 158 153 137 123 121 131 124 118 113 109 116 129 132 159 183 200 201
341 260 274 280 288 287 246 250 200 210 242 249 279 292 315 334 326 311 308 305 247 203 153 155 102 107 110 113 120 125 126 129 128 113 112 113 124 143 159 169 190 218 224 232
59 270 352 273 268 250 263 258 247 247 253 264 275 280 84 281 283 311 311 292 272 240 184 168 151 146 137 136 135 127 121 120 120 115 114 132 148 159 173 177 205 230 244 256
312 289 302 268 14 314 271 252 231 211 203 224 245 301 334 328 344 326 320 310 269 227 182 163 155 147 137 135 136 129 129 129 127 130 149 163 174 181 201 221 233 234 235 250
205 202 244 272 299 252 61 164 63 256 273 206 276 289 317 293 296 284 280 290 266 174 159 143 134 130 132 134 135 138 135 130 144 167 168 175 186 191 206 217 231 240 242 243
230 222 241 247 243 281 240 188 189 190 232 190 190 232 248 285 300 274 225 238 271 179 149 138 134 135 140 140 144 142 142 154 175 188 180 183 194 206 214 221 225 231 234 239
217 243 246 208 249 264 98 135 115 113 268 159 173 222 245 196 280 311 162 197 179 150 141 141 148 151 152 156 157 157 172 180 190 189 188 194 206 215 223 231 235 238 233 239
193 212 226 232 246 261 79 137 155 229 57 145 251 259 255 229 234 236 166 186 171 164 153 154 164 162 166 170 171 183 177 183 184 198 198 204 212 224 233 237 235 233 237 243
197 196 200 237 252 256 133 140 236 28 297 328 312 269 247 242 245 220 207 172 159 142 138 153 156 168 173 180 186 177 177 191 198 214 216 216 221 227 229 231 232 234 239 249
247 239 284 209 228 125 184 282 313 319 311 307 299 283 274 263 254 232 215 180 177 167 158 163 167 173 189 195 189 188 187 197 205 211 213 224 230 229 224 227 233 244 244 246
255 227 247 287 290 17 341 303 312 337 319 311 296 287 277 263 261 226 213 181 176 164 176 177 176 182 199 198 198 203 204 213 219 222 228 234 234 230 236 236 238 239 240 249
347 321 292 288 292 333 349 5 344 328 321 314 306 297 283 263 250 216 188 181 183 176 183 184 181 192 199 197 206 217 219 224 234 239 232 216 223 240 253 254 248 249 252 253
283 348 288 277 12 310 301 335 324 322 320 318 313 309 291 253 231 208 200 178 174 169 177 180 187 193 195 205 216 225 227 223 219 228 219 212 217 230 244 263 280 274 269 267